Torna al catalogo

ONEWEB-0629

AttivoComunicazioniPO
NORAD 55170·PAYLOAD·🇬🇧 United Kingdom

Lanciato Jan 10, 2023 da Cape Canaveral Space Force Station

Loading…

Prossimi Passaggi (prossime 24 ore)

TLE

AggiornatoSource: CelesTrak SupGP

Epoca: Sep 14, 2026, 17:25 UTC

1 55170C 23004AG  26257.72618470  .00002822  00000+0  71084-2 0  2576
2 55170  87.9204 348.0856 0002185 102.7678 326.0030 13.19248525    16

Traccia ONEWEB-0629 in tempo reale con AllMySat

Download on the App Store